contact:dominique.lefevre@mio.osupytheas.fr, maurice.libes@osupytheas.fr, didier.mallarino@osupytheas.fr
Project:EMSO http://www.emso-fr.org/EMSO-France
Depth: 2436.0 m
Title:EMSO Ligure Ouest : Data MII capteur MICROCAT
DateTime_Computer,Latitude,Longitude,Temperature,Conductivity,Pressure,DateTime_Instrument
DateTime_Computer,Latitude,Longitude,degC,S m-1,dbar,DateTime_Instrument
2020-01-30T00:02:18Z,42.805,6.029,13.2958,4.59967,2469.947,2020-1-30T02:02:52Z
2020-01-30T00:05:22Z,42.805,6.029,13.2959,4.59970,2469.937,2020-1-30T02:05:55Z
2020-01-30T00:08:25Z,42.805,6.029,13.2976,4.59981,2469.923,2020-1-30T02:08:58Z
2020-01-30T00:11:28Z,42.805,6.029,13.2967,4.59986,2469.909,2020-1-30T02:12:02Z
2020-01-30T00:14:31Z,42.805,6.029,13.2960,4.59971,2469.923,2020-1-30T02:15:05Z
2020-01-30T00:17:34Z,42.805,6.029,13.2967,4.59968,2469.923,2020-1-30T02:18:08Z
2020-01-30T00:20:38Z,42.805,6.029,13.2960,4.59973,2469.96,2020-1-30T02:21:11Z
2020-01-30T00:23:41Z,42.805,6.029,13.2977,4.59992,2469.96,2020-1-30T02:24:15Z
2020-01-30T00:26:44Z,42.805,6.029,13.2989,4.59994,2469.9,2020-1-30T02:27:18Z
2020-01-30T00:29:47Z,42.805,6.029,13.2964,4.59976,2469.937,2020-1-30T02:30:21Z
2020-01-30T00:32:51Z,42.805,6.029,13.2969,4.59991,2469.914,2020-1-30T02:33:24Z
2020-01-30T00:35:54Z,42.805,6.029,13.2968,4.59985,2469.9,2020-1-30T02:36:27Z
2020-01-30T00:38:57Z,42.805,6.029,13.2976,4.59991,2469.947,2020-1-30T02:39:31Z
2020-01-30T00:42:00Z,42.805,6.029,13.2967,4.59982,2469.923,2020-1-30T02:42:34Z
2020-01-30T00:45:03Z,42.805,6.029,13.2967,4.59978,2469.937,2020-1-30T02:45:37Z
2020-01-30T00:48:07Z,42.805,6.029,13.2961,4.59980,2469.9,2020-1-30T02:48:40Z
2020-01-30T00:51:10Z,42.805,6.029,13.2968,4.59982,2469.937,2020-1-30T02:51:43Z
2020-01-30T00:54:13Z,42.805,6.029,13.2973,4.59976,2469.937,2020-1-30T02:54:47Z
2020-01-30T00:57:16Z,42.805,6.029,13.2975,4.59994,2469.914,2020-1-30T02:57:50Z
2020-01-30T01:00:19Z,42.805,6.029,13.2974,4.59986,2469.876,2020-1-30T03:00:53Z
2020-01-30T01:03:23Z,42.805,6.029,13.2974,4.59987,2469.914,2020-1-30T03:03:56Z
2020-01-30T01:06:26Z,42.805,6.029,13.2974,4.59971,2469.914,2020-1-30T03:06:59Z
2020-01-30T01:09:29Z,42.805,6.029,13.2965,4.59994,2469.9,2020-1-30T03:10:02Z
2020-01-30T01:12:32Z,42.805,6.029,13.2975,4.59982,2469.937,2020-1-30T03:13:06Z
2020-01-30T01:15:35Z,42.805,6.029,13.2966,4.59979,2469.876,2020-1-30T03:16:09Z
2020-01-30T01:18:38Z,42.805,6.029,13.2971,4.59998,2469.89,2020-1-30T03:19:12Z
2020-01-30T01:21:42Z,42.805,6.029,13.2972,4.59972,2469.937,2020-1-30T03:22:15Z
2020-01-30T01:24:45Z,42.805,6.029,13.2978,4.59982,2469.876,2020-1-30T03:25:19Z
2020-01-30T01:27:48Z,42.805,6.029,13.2979,4.59983,2469.937,2020-1-30T03:28:22Z
2020-01-30T01:30:51Z,42.805,6.029,13.2973,4.59981,2469.876,2020-1-30T03:31:25Z
2020-01-30T01:33:54Z,42.805,6.029,13.2980,4.59986,2469.9,2020-1-30T03:34:28Z
2020-01-30T01:36:58Z,42.805,6.029,13.2965,4.59974,2469.876,2020-1-30T03:37:31Z
2020-01-30T01:40:01Z,42.805,6.029,13.2973,4.59983,2469.9,2020-1-30T03:40:35Z
2020-01-30T01:43:04Z,42.805,6.029,13.2961,4.59979,2469.9,2020-1-30T03:43:38Z
2020-01-30T01:46:07Z,42.805,6.029,13.2976,4.59981,2469.876,2020-1-30T03:46:41Z
2020-01-30T01:49:11Z,42.805,6.029,13.2968,4.59988,2469.923,2020-1-30T03:49:44Z
2020-01-30T01:52:14Z,42.805,6.029,13.2963,4.59976,2469.876,2020-1-30T03:52:47Z
2020-01-30T01:55:17Z,42.805,6.029,13.2978,4.59982,2469.937,2020-1-30T03:55:50Z
2020-01-30T01:58:20Z,42.805,6.029,13.2960,4.59978,2469.876,2020-1-30T03:58:54Z
2020-01-30T02:01:23Z,42.805,6.029,13.2958,4.59975,2469.923,2020-1-30T04:01:57Z
2020-01-30T02:04:26Z,42.805,6.029,13.2960,4.59972,2469.89,2020-1-30T04:05:00Z
2020-01-30T02:07:30Z,42.805,6.029,13.2967,4.59973,2469.914,2020-1-30T04:08:03Z
2020-01-30T02:10:33Z,42.805,6.029,13.2964,4.59973,2469.9,2020-1-30T04:11:07Z
2020-01-30T02:13:36Z,42.805,6.029,13.2963,4.59967,2469.89,2020-1-30T04:14:10Z
2020-01-30T02:16:40Z,42.805,6.029,13.2965,4.59976,2469.853,2020-1-30T04:17:13Z
2020-01-30T02:19:43Z,42.805,6.029,13.2964,4.59988,2469.876,2020-1-30T04:20:16Z
2020-01-30T02:22:46Z,42.805,6.029,13.2963,4.59978,2469.89,2020-1-30T04:23:20Z
2020-01-30T02:25:49Z,42.805,6.029,13.2957,4.59966,2469.9,2020-1-30T04:26:23Z
2020-01-30T02:28:52Z,42.805,6.029,13.2962,4.59971,2469.914,2020-1-30T04:29:26Z
2020-01-30T02:31:56Z,42.805,6.029,13.2973,4.59973,2469.876,2020-1-30T04:32:29Z
2020-01-30T02:34:59Z,42.805,6.029,13.2971,4.59972,2469.89,2020-1-30T04:35:32Z
2020-01-30T02:38:02Z,42.805,6.029,13.2966,4.59978,2469.876,2020-1-30T04:38:36Z
2020-01-30T02:41:05Z,42.805,6.029,13.2967,4.59978,2469.89,2020-1-30T04:41:39Z
2020-01-30T02:44:08Z,42.805,6.029,13.2976,4.59987,2469.867,2020-1-30T04:44:42Z
2020-01-30T02:47:12Z,42.805,6.029,13.2967,4.59978,2469.89,2020-1-30T04:47:45Z
2020-01-30T02:50:15Z,42.805,6.029,13.2971,4.59978,2469.867,2020-1-30T04:50:49Z
2020-01-30T02:53:18Z,42.805,6.029,13.2964,4.59981,2469.914,2020-1-30T04:53:52Z
2020-01-30T02:56:21Z,42.805,6.029,13.2973,4.59984,2469.844,2020-1-30T04:56:55Z
2020-01-30T02:59:25Z,42.805,6.029,13.2967,4.59979,2469.853,2020-1-30T04:59:58Z
2020-01-30T03:02:28Z,42.805,6.029,13.2973,4.59991,2469.853,2020-1-30T05:03:01Z
2020-01-30T03:05:31Z,42.805,6.029,13.2959,4.59991,2469.844,2020-1-30T05:06:05Z
2020-01-30T03:08:34Z,42.805,6.029,13.2965,4.59991,2469.876,2020-1-30T05:09:08Z
2020-01-30T03:11:37Z,42.805,6.029,13.2990,4.59983,2469.867,2020-1-30T05:12:11Z
2020-01-30T03:14:41Z,42.805,6.029,13.2970,4.59980,2469.89,2020-1-30T05:15:14Z
2020-01-30T03:17:44Z,42.805,6.029,13.2975,4.59979,2469.9,2020-1-30T05:18:17Z
2020-01-30T03:20:47Z,42.805,6.029,13.2969,4.59985,2469.89,2020-1-30T05:21:21Z
2020-01-30T03:23:51Z,42.805,6.029,13.2963,4.59979,2469.83,2020-1-30T05:24:24Z
2020-01-30T03:26:54Z,42.805,6.029,13.2983,4.59985,2469.867,2020-1-30T05:27:27Z
2020-01-30T03:29:57Z,42.805,6.029,13.2976,4.59983,2469.853,2020-1-30T05:30:31Z
2020-01-30T03:33:00Z,42.805,6.029,13.2976,4.59980,2469.876,2020-1-30T05:33:34Z
2020-01-30T03:36:03Z,42.805,6.029,13.2971,4.59983,2469.853,2020-1-30T05:36:37Z
2020-01-30T03:39:07Z,42.805,6.029,13.2971,4.59977,2469.876,2020-1-30T05:39:40Z
2020-01-30T03:42:10Z,42.805,6.029,13.2973,4.59982,2469.853,2020-1-30T05:42:44Z
2020-01-30T03:45:13Z,42.805,6.029,13.2976,4.59985,2469.867,2020-1-30T05:45:47Z
2020-01-30T03:48:16Z,42.805,6.029,13.2971,4.59987,2469.876,2020-1-30T05:48:50Z
2020-01-30T03:51:20Z,42.805,6.029,13.2964,4.59980,2469.89,2020-1-30T05:51:53Z
2020-01-30T03:54:23Z,42.805,6.029,13.2989,4.59980,2469.867,2020-1-30T05:54:57Z
2020-01-30T03:57:26Z,42.805,6.029,13.2968,4.59976,2469.876,2020-1-30T05:58:00Z
2020-01-30T04:00:29Z,42.805,6.029,13.2968,4.59983,2469.876,2020-1-30T06:01:03Z
2020-01-30T04:03:32Z,42.805,6.029,13.2975,4.59987,2469.867,2020-1-30T06:04:06Z
2020-01-30T04:06:36Z,42.805,6.029,13.2975,4.59986,2469.853,2020-1-30T06:07:09Z
2020-01-30T04:09:39Z,42.805,6.029,13.2965,4.59983,2469.876,2020-1-30T06:10:12Z
2020-01-30T04:12:42Z,42.805,6.029,13.2974,4.59991,2469.876,2020-1-30T06:13:16Z
2020-01-30T04:15:45Z,42.805,6.029,13.2959,4.59975,2469.867,2020-1-30T06:16:19Z
2020-01-30T04:18:48Z,42.805,6.029,13.2958,4.59966,2469.853,2020-1-30T06:19:22Z
2020-01-30T04:21:52Z,42.805,6.029,13.2960,4.59981,2469.9,2020-1-30T06:22:25Z
2020-01-30T04:24:55Z,42.805,6.029,13.2964,4.59972,2469.876,2020-1-30T06:25:28Z
2020-01-30T04:27:58Z,42.805,6.029,13.2961,4.59966,2469.89,2020-1-30T06:28:32Z
2020-01-30T04:31:01Z,42.805,6.029,13.2960,4.59972,2469.876,2020-1-30T06:31:35Z
2020-01-30T04:34:05Z,42.805,6.029,13.2962,4.59969,2469.89,2020-1-30T06:34:38Z
2020-01-30T04:37:08Z,42.805,6.029,13.2958,4.59982,2469.876,2020-1-30T06:37:41Z
2020-01-30T04:40:11Z,42.805,6.029,13.2968,4.59983,2469.83,2020-1-30T06:40:45Z
2020-01-30T04:43:14Z,42.805,6.029,13.2980,4.59972,2469.853,2020-1-30T06:43:48Z
2020-01-30T04:46:17Z,42.805,6.029,13.2960,4.59978,2469.876,2020-1-30T06:46:51Z
2020-01-30T04:49:21Z,42.805,6.029,13.2961,4.59978,2469.867,2020-1-30T06:49:54Z
2020-01-30T04:52:24Z,42.805,6.029,13.2978,4.59978,2469.844,2020-1-30T06:52:57Z
2020-01-30T04:55:27Z,42.805,6.029,13.2971,4.59984,2469.89,2020-1-30T06:56:01Z
2020-01-30T04:58:30Z,42.805,6.029,13.2978,4.59981,2469.867,2020-1-30T06:59:04Z
2020-01-30T05:01:34Z,42.805,6.029,13.2973,4.59983,2469.853,2020-1-30T07:02:07Z
2020-01-30T05:04:37Z,42.805,6.029,13.2962,4.59981,2469.876,2020-1-30T07:05:10Z
2020-01-30T05:07:40Z,42.805,6.029,13.2976,4.59982,2469.853,2020-1-30T07:08:14Z
2020-01-30T05:10:43Z,42.805,6.029,13.2962,4.59981,2469.853,2020-1-30T07:11:17Z
2020-01-30T05:13:46Z,42.805,6.029,13.2970,4.59980,2469.853,2020-1-30T07:14:20Z
2020-01-30T05:16:49Z,42.805,6.029,13.2964,4.59975,2469.867,2020-1-30T07:17:23Z
2020-01-30T05:19:53Z,42.805,6.029,13.2960,4.59971,2469.876,2020-1-30T07:20:26Z
2020-01-30T05:22:56Z,42.805,6.029,13.2962,4.59979,2469.867,2020-1-30T07:23:30Z
2020-01-30T05:25:59Z,42.805,6.029,13.2976,4.59978,2469.867,2020-1-30T07:26:33Z
2020-01-30T05:29:02Z,42.805,6.029,13.2961,4.59976,2469.89,2020-1-30T07:29:36Z
2020-01-30T05:32:06Z,42.805,6.029,13.2962,4.59974,2469.867,2020-1-30T07:32:39Z
2020-01-30T05:35:09Z,42.805,6.029,13.2960,4.59966,2469.876,2020-1-30T07:35:42Z
2020-01-30T05:38:12Z,42.805,6.029,13.2967,4.59979,2469.853,2020-1-30T07:38:46Z
2020-01-30T05:41:15Z,42.805,6.029,13.2964,4.59971,2469.876,2020-1-30T07:41:49Z
2020-01-30T05:44:18Z,42.805,6.029,13.2965,4.59972,2469.9,2020-1-30T07:44:52Z
2020-01-30T05:47:22Z,42.805,6.029,13.2960,4.59973,2469.853,2020-1-30T07:47:55Z
2020-01-30T05:50:25Z,42.805,6.029,13.2961,4.59976,2469.89,2020-1-30T07:50:58Z
2020-01-30T05:53:28Z,42.805,6.029,13.2968,4.59983,2469.904,2020-1-30T07:54:02Z
2020-01-30T05:56:31Z,42.805,6.029,13.2970,4.59984,2469.83,2020-1-30T07:57:05Z
2020-01-30T05:59:34Z,42.805,6.029,13.2960,4.59967,2469.876,2020-1-30T08:00:08Z
2020-01-30T06:02:38Z,42.805,6.029,13.2968,4.59979,2469.876,2020-1-30T08:03:11Z
2020-01-30T06:06:02Z,42.805,6.029,13.2961,4.59971,2469.89,2020-1-30T08:06:14Z
2020-01-30T06:08:45Z,42.805,6.029,13.2972,4.59981,2469.89,2020-1-30T08:09:19Z
2020-01-30T06:11:48Z,42.805,6.029,13.2959,4.59976,2469.89,2020-1-30T08:12:22Z
2020-01-30T06:14:52Z,42.805,6.029,13.2971,4.59990,2469.853,2020-1-30T08:15:25Z
2020-01-30T06:17:55Z,42.805,6.029,13.2961,4.59972,2469.914,2020-1-30T08:18:28Z
2020-01-30T06:20:58Z,42.805,6.029,13.2963,4.59982,2469.914,2020-1-30T08:21:32Z
2020-01-30T06:24:01Z,42.805,6.029,13.2961,4.59976,2469.876,2020-1-30T08:24:35Z
2020-01-30T06:27:04Z,42.805,6.029,13.2958,4.59966,2469.9,2020-1-30T08:27:38Z
2020-01-30T06:30:08Z,42.805,6.029,13.2961,4.59968,2469.89,2020-1-30T08:30:42Z
2020-01-30T06:33:11Z,42.805,6.029,13.2982,4.59990,2469.876,2020-1-30T08:33:45Z
2020-01-30T06:36:14Z,42.805,6.029,13.2962,4.59975,2469.9,2020-1-30T08:36:48Z
2020-01-30T06:39:18Z,42.805,6.029,13.2969,4.59976,2469.89,2020-1-30T08:39:51Z
2020-01-30T06:42:21Z,42.805,6.029,13.2971,4.59976,2469.9,2020-1-30T08:42:54Z
2020-01-30T06:45:24Z,42.805,6.029,13.2976,4.59976,2469.914,2020-1-30T08:45:58Z
2020-01-30T06:48:27Z,42.805,6.029,13.2976,4.60001,2469.9,2020-1-30T08:49:01Z
2020-01-30T06:51:30Z,42.805,6.029,13.2957,4.59973,2469.937,2020-1-30T08:52:04Z
2020-01-30T06:54:34Z,42.805,6.029,13.2961,4.59992,2469.937,2020-1-30T08:55:07Z
2020-01-30T06:57:37Z,42.805,6.029,13.2965,4.59983,2469.937,2020-1-30T08:58:10Z
2020-01-30T07:00:40Z,42.805,6.029,13.2967,4.59984,2469.937,2020-1-30T09:01:14Z
2020-01-30T07:03:43Z,42.805,6.029,13.2964,4.59978,2469.937,2020-1-30T09:04:17Z
2020-01-30T07:06:47Z,42.805,6.029,13.2963,4.59968,2469.923,2020-1-30T09:07:20Z
2020-01-30T07:09:50Z,42.805,6.029,13.2961,4.59968,2469.937,2020-1-30T09:10:23Z
2020-01-30T07:12:53Z,42.805,6.029,13.2961,4.59976,2469.947,2020-1-30T09:13:26Z
2020-01-30T07:15:56Z,42.805,6.029,13.2969,4.59991,2469.937,2020-1-30T09:16:30Z
2020-01-30T07:18:59Z,42.805,6.029,13.2974,4.59979,2469.947,2020-1-30T09:19:33Z
2020-01-30T07:22:02Z,42.805,6.029,13.2961,4.59967,2469.947,2020-1-30T09:22:36Z
2020-01-30T07:25:06Z,42.805,6.029,13.2965,4.59972,2469.947,2020-1-30T09:25:39Z
2020-01-30T07:28:09Z,42.805,6.029,13.2962,4.59974,2469.923,2020-1-30T09:28:43Z
2020-01-30T07:31:12Z,42.805,6.029,13.2962,4.59990,2469.947,2020-1-30T09:31:46Z
2020-01-30T07:34:15Z,42.805,6.029,13.2958,4.59969,2469.947,2020-1-30T09:34:49Z
2020-01-30T07:37:18Z,42.805,6.029,13.2963,4.59966,2469.97,2020-1-30T09:37:52Z
2020-01-30T07:40:22Z,42.805,6.029,13.2961,4.59966,2469.97,2020-1-30T09:40:55Z
2020-01-30T07:43:25Z,42.805,6.029,13.2972,4.59972,2469.993,2020-1-30T09:43:58Z
2020-01-30T07:46:28Z,42.805,6.029,13.2961,4.59971,2469.984,2020-1-30T09:47:02Z
2020-01-30T07:49:31Z,42.805,6.029,13.2965,4.59974,2469.984,2020-1-30T09:50:05Z
2020-01-30T07:52:34Z,42.805,6.029,13.2967,4.59972,2469.993,2020-1-30T09:53:08Z
2020-01-30T07:55:38Z,42.805,6.029,13.2960,4.59961,2469.984,2020-1-30T09:56:11Z
2020-01-30T07:58:41Z,42.805,6.029,13.2959,4.59964,2469.97,2020-1-30T09:59:14Z
2020-01-30T08:01:44Z,42.805,6.029,13.2962,4.59966,2469.96,2020-1-30T10:02:18Z
2020-01-30T08:04:47Z,42.805,6.029,13.2964,4.59973,2469.97,2020-1-30T10:05:21Z
2020-01-30T08:07:50Z,42.805,6.029,13.2960,4.59970,2470.03,2020-1-30T10:08:24Z
2020-01-30T08:10:54Z,42.805,6.029,13.2961,4.59966,2469.993,2020-1-30T10:11:27Z
2020-01-30T08:13:57Z,42.805,6.029,13.2964,4.59964,2469.993,2020-1-30T10:14:30Z
2020-01-30T08:17:00Z,42.805,6.029,13.2958,4.59966,2470.007,2020-1-30T10:17:34Z
2020-01-30T08:20:03Z,42.805,6.029,13.2961,4.59967,2469.993,2020-1-30T10:20:37Z
2020-01-30T08:23:06Z,42.805,6.029,13.2957,4.59966,2470.007,2020-1-30T10:23:40Z
2020-01-30T08:26:10Z,42.805,6.029,13.2964,4.59969,2470.04,2020-1-30T10:26:43Z
2020-01-30T08:29:13Z,42.805,6.029,13.2963,4.59972,2469.993,2020-1-30T10:29:47Z
2020-01-30T08:32:16Z,42.805,6.029,13.2962,4.59979,2469.993,2020-1-30T10:32:50Z
2020-01-30T08:35:19Z,42.805,6.029,13.2961,4.59979,2470.03,2020-1-30T10:35:53Z
2020-01-30T08:38:23Z,42.805,6.029,13.2961,4.59964,2469.993,2020-1-30T10:38:56Z
2020-01-30T08:41:26Z,42.805,6.029,13.2964,4.59975,2470.04,2020-1-30T10:41:59Z
2020-01-30T08:44:29Z,42.805,6.029,13.2961,4.59971,2470.04,2020-1-30T10:45:03Z
2020-01-30T08:47:32Z,42.805,6.029,13.2963,4.59979,2470.017,2020-1-30T10:48:06Z
2020-01-30T08:50:35Z,42.805,6.029,13.2960,4.59979,2470.017,2020-1-30T10:51:09Z
2020-01-30T08:53:39Z,42.805,6.029,13.2957,4.59971,2470.053,2020-1-30T10:54:12Z
2020-01-30T08:56:42Z,42.805,6.029,13.2960,4.59973,2470.04,2020-1-30T10:57:16Z
2020-01-30T08:59:45Z,42.805,6.029,13.2974,4.59984,2470.053,2020-1-30T11:00:19Z
2020-01-30T09:02:48Z,42.805,6.029,13.2964,4.59979,2470.053,2020-1-30T11:03:22Z
2020-01-30T09:05:52Z,42.805,6.029,13.2965,4.59981,2470.04,2020-1-30T11:06:25Z
2020-01-30T09:08:55Z,42.805,6.029,13.2962,4.59971,2470.017,2020-1-30T11:09:28Z
2020-01-30T09:11:58Z,42.805,6.029,13.2977,4.59979,2470.053,2020-1-30T11:12:32Z
2020-01-30T09:15:01Z,42.805,6.029,13.2988,4.59969,2470.053,2020-1-30T11:15:35Z
2020-01-30T09:18:04Z,42.805,6.029,13.2964,4.59983,2470.026,2020-1-30T11:18:38Z
2020-01-30T09:21:08Z,42.805,6.029,13.2961,4.59968,2470.053,2020-1-30T11:21:41Z
2020-01-30T09:24:11Z,42.805,6.029,13.2961,4.59964,2470.04,2020-1-30T11:24:44Z
2020-01-30T09:27:14Z,42.805,6.029,13.2968,4.59966,2470.077,2020-1-30T11:27:48Z
2020-01-30T09:30:17Z,42.805,6.029,13.2958,4.59968,2470.04,2020-1-30T11:30:51Z
2020-01-30T09:33:20Z,42.805,6.029,13.2958,4.59968,2470.017,2020-1-30T11:33:54Z
2020-01-30T09:36:24Z,42.805,6.029,13.2961,4.59979,2470.04,2020-1-30T11:36:57Z
2020-01-30T09:39:27Z,42.805,6.029,13.2959,4.59969,2470.017,2020-1-30T11:40:00Z
2020-01-30T09:42:30Z,42.805,6.029,13.2961,4.59968,2470.053,2020-1-30T11:43:04Z
2020-01-30T09:45:33Z,42.805,6.029,13.2960,4.59967,2470.1,2020-1-30T11:46:07Z
2020-01-30T09:48:36Z,42.805,6.029,13.2961,4.59969,2470.063,2020-1-30T11:49:10Z
2020-01-30T09:51:40Z,42.805,6.029,13.2961,4.59976,2470.053,2020-1-30T11:52:13Z
2020-01-30T09:54:43Z,42.805,6.029,13.2960,4.59979,2470.1,2020-1-30T11:55:16Z
2020-01-30T09:57:46Z,42.805,6.029,13.2964,4.60000,2470.04,2020-1-30T11:58:20Z
2020-01-30T10:00:49Z,42.805,6.029,13.2964,4.59981,2470.04,2020-1-30T12:01:23Z
2020-01-30T10:03:53Z,42.805,6.029,13.2961,4.59971,2470.063,2020-1-30T12:04:26Z
2020-01-30T10:06:56Z,42.805,6.029,13.2963,4.59970,2470.063,2020-1-30T12:07:29Z
2020-01-30T10:09:59Z,42.805,6.029,13.2964,4.59972,2470.053,2020-1-30T12:10:33Z
2020-01-30T10:13:02Z,42.805,6.029,13.2964,4.59984,2470.063,2020-1-30T12:13:36Z
2020-01-30T10:16:05Z,42.805,6.029,13.2961,4.59976,2470.077,2020-1-30T12:16:39Z
2020-01-30T10:19:09Z,42.805,6.029,13.2958,4.59968,2470.087,2020-1-30T12:19:42Z
2020-01-30T10:22:12Z,42.805,6.029,13.2963,4.59979,2470.063,2020-1-30T12:22:46Z
2020-01-30T10:25:15Z,42.805,6.029,13.2967,4.59982,2470.063,2020-1-30T12:25:49Z
2020-01-30T10:28:18Z,42.805,6.029,13.2975,4.59978,2470.063,2020-1-30T12:28:52Z
2020-01-30T10:31:21Z,42.805,6.029,13.2963,4.59981,2470.077,2020-1-30T12:31:55Z
2020-01-30T10:34:25Z,42.805,6.029,13.2973,4.59984,2470.077,2020-1-30T12:34:58Z
2020-01-30T10:37:28Z,42.805,6.029,13.2967,4.59988,2470.087,2020-1-30T12:38:02Z
2020-01-30T10:40:31Z,42.805,6.029,13.2964,4.59983,2470.077,2020-1-30T12:41:05Z
2020-01-30T10:43:34Z,42.805,6.029,13.2966,4.59974,2470.087,2020-1-30T12:44:08Z
2020-01-30T10:46:38Z,42.805,6.029,13.2958,4.59968,2470.063,2020-1-30T12:47:11Z
2020-01-30T10:49:41Z,42.805,6.029,13.2958,4.59970,2470.063,2020-1-30T12:50:14Z
2020-01-30T10:52:44Z,42.805,6.029,13.2961,4.59964,2470.073,2020-1-30T12:53:17Z
2020-01-30T10:55:47Z,42.805,6.029,13.2958,4.59962,2470.063,2020-1-30T12:56:21Z
2020-01-30T10:58:50Z,42.805,6.029,13.2964,4.59965,2470.04,2020-1-30T12:59:24Z
2020-01-30T11:01:54Z,42.805,6.029,13.2960,4.59968,2470.1,2020-1-30T13:02:27Z
2020-01-30T11:04:57Z,42.805,6.029,13.2964,4.59994,2470.1,2020-1-30T13:05:30Z
2020-01-30T11:08:01Z,42.805,6.029,13.2959,4.59976,2470.063,2020-1-30T13:08:34Z
2020-01-30T11:11:04Z,42.805,6.029,13.2965,4.59989,2470.087,2020-1-30T13:11:37Z
2020-01-30T11:14:07Z,42.805,6.029,13.2972,4.59988,2470.087,2020-1-30T13:14:41Z
2020-01-30T11:17:10Z,42.805,6.029,13.2958,4.59984,2470.063,2020-1-30T13:17:44Z
2020-01-30T11:20:13Z,42.805,6.029,13.2961,4.59981,2470.1,2020-1-30T13:20:47Z
2020-01-30T11:23:17Z,42.805,6.029,13.2965,4.59983,2470.077,2020-1-30T13:23:50Z
2020-01-30T11:26:20Z,42.805,6.029,13.2969,4.59988,2470.063,2020-1-30T13:26:53Z
2020-01-30T11:29:23Z,42.805,6.029,13.2976,4.59984,2470.04,2020-1-30T13:29:57Z
2020-01-30T11:32:26Z,42.805,6.029,13.2966,4.59979,2470.1,2020-1-30T13:33:00Z
2020-01-30T11:35:29Z,42.805,6.029,13.2966,4.59996,2470.1,2020-1-30T13:36:03Z
2020-01-30T11:38:33Z,42.805,6.029,13.2968,4.59980,2470.087,2020-1-30T13:39:06Z
2020-01-30T11:41:36Z,42.805,6.029,13.2966,4.59979,2470.063,2020-1-30T13:42:09Z
2020-01-30T11:44:39Z,42.805,6.029,13.2971,4.59985,2470.063,2020-1-30T13:45:13Z
2020-01-30T11:47:42Z,42.805,6.029,13.2962,4.59969,2470.1,2020-1-30T13:48:16Z
2020-01-30T11:50:46Z,42.805,6.029,13.2960,4.59981,2470.077,2020-1-30T13:51:19Z
2020-01-30T11:53:49Z,42.805,6.029,13.2964,4.59979,2470.04,2020-1-30T13:54:23Z
2020-01-30T11:56:52Z,42.805,6.029,13.2968,4.59972,2470.063,2020-1-30T13:57:26Z
2020-01-30T11:59:55Z,42.805,6.029,13.2963,4.59991,2470.1,2020-1-30T14:00:29Z
2020-01-30T12:02:59Z,42.805,6.029,13.2968,4.59982,2470.04,2020-1-30T14:03:32Z
2020-01-30T12:06:02Z,42.805,6.029,13.2961,4.59983,2470.053,2020-1-30T14:06:36Z
2020-01-30T12:09:05Z,42.805,6.029,13.2959,4.59966,2470.1,2020-1-30T14:09:39Z
2020-01-30T12:12:08Z,42.805,6.029,13.2966,4.59976,2470.053,2020-1-30T14:12:42Z
2020-01-30T12:15:11Z,42.805,6.029,13.2967,4.59976,2470.04,2020-1-30T14:15:45Z
2020-01-30T12:18:15Z,42.805,6.029,13.2961,4.59976,2470.053,2020-1-30T14:18:48Z
2020-01-30T12:21:18Z,42.805,6.029,13.2964,4.59968,2470.04,2020-1-30T14:21:52Z
2020-01-30T12:24:21Z,42.805,6.029,13.2962,4.59965,2470.04,2020-1-30T14:24:55Z
2020-01-30T12:27:24Z,42.805,6.029,13.2959,4.59968,2470.053,2020-1-30T14:27:58Z
2020-01-30T12:30:28Z,42.805,6.029,13.2959,4.59982,2470.017,2020-1-30T14:31:01Z
2020-01-30T12:33:31Z,42.805,6.029,13.2953,4.59966,2470.053,2020-1-30T14:34:04Z
2020-01-30T12:36:34Z,42.805,6.029,13.2962,4.59973,2470.03,2020-1-30T14:37:08Z
2020-01-30T12:39:37Z,42.805,6.029,13.2964,4.59973,2470.03,2020-1-30T14:40:11Z
2020-01-30T12:42:40Z,42.805,6.029,13.2990,4.59981,2470.017,2020-1-30T14:43:14Z
2020-01-30T12:45:44Z,42.805,6.029,13.2967,4.59996,2470.053,2020-1-30T14:46:17Z
2020-01-30T12:48:47Z,42.805,6.029,13.2974,4.59991,2470.017,2020-1-30T14:49:20Z
2020-01-30T12:51:50Z,42.805,6.029,13.2978,4.59979,2470.017,2020-1-30T14:52:24Z
2020-01-30T12:54:53Z,42.805,6.029,13.2972,4.59990,2470.03,2020-1-30T14:55:27Z
2020-01-30T12:57:56Z,42.805,6.029,13.2968,4.59988,2470.053,2020-1-30T14:58:30Z
2020-01-30T13:00:59Z,42.805,6.029,13.2971,4.59984,2470.017,2020-1-30T15:01:33Z
2020-01-30T13:04:03Z,42.805,6.029,13.2963,4.59988,2470.03,2020-1-30T15:04:36Z
2020-01-30T13:07:06Z,42.805,6.029,13.2972,4.59979,2470.017,2020-1-30T15:07:40Z
2020-01-30T13:10:09Z,42.805,6.029,13.2967,4.59979,2469.993,2020-1-30T15:10:43Z
2020-01-30T13:13:12Z,42.805,6.029,13.2968,4.59981,2470.053,2020-1-30T15:13:46Z
2020-01-30T13:16:16Z,42.805,6.029,13.2978,4.59989,2470.007,2020-1-30T15:16:49Z
2020-01-30T13:19:19Z,42.805,6.029,13.2962,4.59968,2470.053,2020-1-30T15:19:52Z
2020-01-30T13:22:22Z,42.805,6.029,13.2961,4.59975,2470.053,2020-1-30T15:22:56Z
2020-01-30T13:25:25Z,42.805,6.029,13.2965,4.59984,2469.993,2020-1-30T15:25:59Z
2020-01-30T13:28:28Z,42.805,6.029,13.2964,4.59977,2469.97,2020-1-30T15:29:02Z
2020-01-30T13:31:32Z,42.805,6.029,13.2968,4.59978,2469.993,2020-1-30T15:32:05Z
2020-01-30T13:34:35Z,42.805,6.029,13.2968,4.59975,2470.017,2020-1-30T15:35:08Z
2020-01-30T13:37:38Z,42.805,6.029,13.2962,4.59973,2470.03,2020-1-30T15:38:12Z
2020-01-30T13:40:41Z,42.805,6.029,13.2964,4.59986,2469.993,2020-1-30T15:41:15Z
2020-01-30T13:43:44Z,42.805,6.029,13.2961,4.59971,2470.017,2020-1-30T15:44:18Z
2020-01-30T13:46:48Z,42.805,6.029,13.2964,4.59976,2469.993,2020-1-30T15:47:21Z
2020-01-30T13:49:51Z,42.805,6.029,13.2958,4.59978,2470.03,2020-1-30T15:50:25Z
2020-01-30T13:52:54Z,42.805,6.029,13.2961,4.59971,2469.984,2020-1-30T15:53:28Z
2020-01-30T13:55:57Z,42.805,6.029,13.2963,4.59967,2469.97,2020-1-30T15:56:31Z
2020-01-30T13:59:01Z,42.805,6.029,13.2964,4.59979,2469.984,2020-1-30T15:59:34Z
2020-01-30T14:02:04Z,42.805,6.029,13.2958,4.59965,2469.993,2020-1-30T16:02:38Z
2020-01-30T14:05:07Z,42.805,6.029,13.2968,4.59982,2470.007,2020-1-30T16:05:41Z
2020-01-30T14:08:10Z,42.805,6.029,13.2957,4.59975,2469.956,2020-1-30T16:08:44Z
2020-01-30T14:11:13Z,42.805,6.029,13.2961,4.59968,2469.993,2020-1-30T16:11:47Z
2020-01-30T14:14:17Z,42.805,6.029,13.2961,4.59971,2469.97,2020-1-30T16:14:50Z
2020-01-30T14:17:20Z,42.805,6.029,13.2959,4.59970,2469.97,2020-1-30T16:17:54Z
2020-01-30T14:20:23Z,42.805,6.029,13.2958,4.59970,2469.993,2020-1-30T16:20:57Z
2020-01-30T14:23:26Z,42.805,6.029,13.2964,4.59978,2469.993,2020-1-30T16:24:00Z
2020-01-30T14:26:29Z,42.805,6.029,13.2964,4.59985,2469.993,2020-1-30T16:27:03Z
2020-01-30T14:29:33Z,42.805,6.029,13.2961,4.59981,2469.97,2020-1-30T16:30:06Z
2020-01-30T14:32:36Z,42.805,6.029,13.2963,4.59976,2469.97,2020-1-30T16:33:10Z
2020-01-30T14:35:39Z,42.805,6.029,13.2959,4.59984,2469.984,2020-1-30T16:36:13Z
2020-01-30T14:38:42Z,42.805,6.029,13.2976,4.59989,2469.993,2020-1-30T16:39:16Z
2020-01-30T14:41:46Z,42.805,6.029,13.2961,4.59978,2469.947,2020-1-30T16:42:19Z
2020-01-30T14:44:49Z,42.805,6.029,13.2967,4.59974,2469.993,2020-1-30T16:45:22Z
2020-01-30T14:47:52Z,42.805,6.029,13.2964,4.59973,2470.007,2020-1-30T16:48:26Z
2020-01-30T14:50:55Z,42.805,6.029,13.2961,4.59973,2469.96,2020-1-30T16:51:29Z
2020-01-30T14:53:58Z,42.805,6.029,13.2964,4.59968,2469.984,2020-1-30T16:54:32Z
2020-01-30T14:57:02Z,42.805,6.029,13.2961,4.59969,2469.993,2020-1-30T16:57:35Z
2020-01-30T15:00:05Z,42.805,6.029,13.2961,4.59979,2469.97,2020-1-30T17:00:38Z
2020-01-30T15:03:08Z,42.805,6.029,13.2962,4.59978,2469.947,2020-1-30T17:03:42Z
2020-01-30T15:06:11Z,42.805,6.029,13.2957,4.59961,2469.97,2020-1-30T17:06:45Z
2020-01-30T15:09:14Z,42.805,6.029,13.2959,4.59964,2469.96,2020-1-30T17:09:48Z
2020-01-30T15:12:18Z,42.805,6.029,13.2962,4.59966,2469.947,2020-1-30T17:12:51Z
2020-01-30T15:15:21Z,42.805,6.029,13.2961,4.59963,2469.923,2020-1-30T17:15:55Z